User: anonymous   Login
Location: Unspecified
(0.0000°N, 0.0000°E)
Time: 21:20:57
(UTC+00:00)
Language:

GALASSIA - Orbit

View from above orbital plane
View from above orbital plane
View from above satellite
View from above satellite

Ground track
Ground track

The orbit data is extracted from the following two-line orbital elements,

1 41170U 15077E   17141.72039551 +.00002402 +00000-0 +97206-4 0  9995
2 41170 014.9898 359.2919 0013545 026.5640 333.5373 15.12009203079065
Epoch (UTC): 21 May 2017 17:17:22
Eccentricity: 0.0013545
inclination: 14.9898°
perigee height: 521 km
apogee height: 539 km
right ascension of ascending node: 359.2919°
argument of perigee: 26.5640°
revolutions per day: 15.12009203
mean anomaly at epoch: 333.5373°
orbit number at epoch: 7906

The dashed part of the orbit path shows where the satellite is in the earth's shadow,  

DLR